Flag for Israel Weather past 2 weeks in Holon, Israel

Now
59 °F

Scattered clouds.


Feels Like: 58 °F
Forecast: 56 / 68 °F
Wind: 6 mph from Southeast

Location: Dov Airport

Current Time: Dec 20, 2014 at 8:18:15 AM

Latest Report: Dec 20, 2014 at 7:50 AM


Visibility: N/A

Pressure: 30.09 "Hg

Humidity: 82%

Dew point: 54 °F

Location of HolonLocation

Historic Weather in Holon — Graph

°F

Holon temperature yesterday

Maximum temperature yesterday: 66 °F (at 10:50 AM)
Minimum temperature yesterday: 59 °F (at 5:50 AM)
Average temperature yesterday: 64 °F

Past Weeks' High & Low Weather Summary

 TemperatureHumidityPressure
High81 °F (Dec 11, 1:50 PM)88% (Dec 14, 5:50 AM)30.21 "Hg (Dec 14, 5:50 AM)
Low55 °F (Dec 15, 5:00 AM)32% (Dec 13, 10:50 AM)29.74 "Hg (Dec 9, 5:50 AM)
Average66 °F66%30.03 "Hg
* Reported Dec 5 6:50 AM — Dec 20 6:50 AM, Holon, Weather by CustomWeather, © 2014

Note: Actual official high and low records may vary slightly from our data, if they occured in-between our weather recording intervals... More about our weather records

Advertising

Holon weather history for previous 24 hours

 ConditionsComfort  
Time TempWeatherWind HumidityBarometerVisibility
6:50 AM
Dec 20
57 °FScattered clouds.6 mph88%30.07 "Hg6 mi
6:00 AM57 °FPassing clouds.6 mph88%30.07 "Hg6 mi
9:50 PM
Dec 19
63 °FPassing clouds.3 mph77%30.07 "Hg6 mi
8:50 PM63 °FPassing clouds.3 mph77%30.07 "Hg6 mi
7:50 PM63 °FPassing clouds.5 mph83%30.07 "Hg5 mi
6:50 PM64 °FPassing clouds.3 mph73%30.07 "Hg5 mi
5:50 PM64 °FPassing clouds.3 mph73%30.04 "Hg5 mi
4:50 PM66 °FPassing clouds.1 mph68%30.04 "Hg5 mi
3:50 PM66 °FPartly sunny.No wind68%30.04 "Hg5 mi
2:50 PM66 °FScattered clouds.3 mph68%30.04 "Hg5 mi
1:50 PM66 °FPassing clouds.7 mph68%30.04 "HgN/A
12:50 PM66 °FPassing clouds.6 mph64%30.04 "HgN/A
11:50 AM66 °FSunny.3 mph64%30.04 "Hg10 mi
10:50 AM66 °FSunny.5 mph60%30.07 "Hg10 mi
9:50 AM63 °FSunny.7 mph68%30.07 "Hg10 mi
8:50 AM63 °FSunny.7 mph68%30.07 "Hg10 mi
Weather by CustomWeather, © 2014

See weather overviewHow to use our weather pages